[[{"header":{"parameterUnit":"m.s-1","parameterCategory":1,"la1":30.2991,"la2":30.254,"lo1":-89.0895,"lo2":-89.0444,"dy":0.0017,"dx":0.0017,"nx":28,"ny":28,"refTime":"2023-11-04T09:00:00:Z","depth":0,"parameterNumber":2,"parameterNumberName":"U-component_of_WINDS"},"data":[0,0,0,0,0,0,0,0,0,0,0,0,0,0,0,0,0,0,0,0,0,0,0,0,0,0,0,0,0,0,0,0,0,0,0,0,0,0,0,0,0,0,0,0,0,0,0,0,0,0,0,0,0,0,0,0,0,0,-1.1701,-1.1702,0,-1.1771,-1.1771,-1.1772,-1.1743,-1.1742,-1.174,-1.1738,-1.1809,-1.1813,-1.1816,0,0,0,0,0,0,0,0,0,0,0,0,0,-1.1544,-1.1547,-1.1701,-1.1702,-1.1703,-1.177,-1.1771,-1.1772,-1.1744,-1.1741,-1.1739,-1.1738,-1.1808,-1.1812,-1.1816,0,0,0,0,0,0,0,0,0,0,0,0,0,-1.1612,-1.1548,-1.1701,-1.1697,-1.1697,-1.177,-1.1771,-1.1773,-1.1744,-1.1741,-1.1739,-1.1737,-1.1807,-1.1812,-1.1817,-1.1899,0,0,-1.1833,-1.1835,0,0,0,0,0,0,0,0,-1.1609,-1.1618,-1.1696,-1.1697,-1.1698,-1.1746,-1.1742,-1.1815,-1.1745,-1.1726,-1.1738,-1.1735,-1.179,-1.1797,-1.1815,-1.1902,-1.1905,-1.1833,-1.1836,-1.1839,-1.184,0,0,0,0,0,0,0,-1.1604,-1.1615,-1.1729,-1.1698,-1.1698,-1.1691,-1.1698,-1.1756,-1.1771,-1.1728,-1.1726,-1.1734,-1.179,-1.181,-1.1817,-1.1906,-1.1833,-1.1838,-1.1841,-1.1843,-1.2063,-1.2066,0,0,0,0,0,0,-1.1599,-1.1611,-1.1726,-1.1731,-1.1646,-1.1696,-1.1704,-1.1733,-1.1771,-1.1774,-1.1736,-1.1733,-1.1803,-1.1811,-1.1819,-1.1917,-1.1839,-1.1843,-1.1846,-1.206,-1.2064,-1.2067,0,0,0,0,0,0,-1.1596,-1.161,-1.1724,-1.1671,-1.1684,-1.1701,-1.1734,-1.1735,-1.1756,-1.1777,-1.178,-1.1754,-1.1801,-1.1812,-1.1879,-1.1919,-1.1846,-1.185,-1.2057,-1.2061,-1.2065,-1.2114,0,0,0,0,0,0,-1.1591,-1.1609,-1.164,-1.1671,-1.1687,-1.1783,-1.1737,-1.1739,-1.1765,-1.176,-1.1794,-1.1798,-1.18,-1.1871,-1.1884,-1.1925,-1.1854,-1.2054,-1.2059,-1.2064,-1.2109,-1.2119,-1.2128,0,0,0,0,0,-1.1586,-1.1651,-1.1642,-1.1656,-1.1727,-1.1785,-1.1794,-1.1795,-1.1768,-1.1799,-1.1813,-1.1797,-1.1912,-1.1879,-1.1893,-1.1936,-1.2051,-1.2058,-1.2064,-1.2105,-1.2117,-1.2128,0,0,0,0,0,0,-1.1624,-1.1655,-1.1645,-1.1722,-1.1751,-1.178,-1.182,-1.1809,-1.1846,-1.1841,-1.184,-1.1848,-1.1918,-1.1933,-1.1895,-1.2016,-1.1978,-1.1987,-1.2004,-1.2016,-1.2026,-1.2021,-1.1859,0,0,0,0,0,-1.1641,-1.1686,-1.1711,-1.1776,-1.1791,-1.1803,-1.1829,-1.1827,-1.1857,-1.1869,-1.1888,-1.1918,-1.1961,-1.1989,-1.203,-1.2111,-1.2118,-1.2147,-1.2157,-1.2164,-1.2173,-1.2217,-1.223,-1.2087,-1.2087,-1.2087,0,0,-1.1678,-1.17,-1.1728,-1.1785,-1.1807,-1.1853,-1.1814,-1.1865,-1.1899,-1.1877,-1.1942,-1.1957,-1.199,-1.2064,-1.2098,-1.2079,-1.2214,-1.2172,-1.2178,-1.2183,-1.2224,-1.2238,-1.225,-1.2091,-1.2091,-1.209,0,0,-1.1768,-1.1789,-1.1846,-1.1869,-1.1904,-1.1911,-1.1925,-1.1955,-1.1964,-1.2029,-1.2014,-1.2054,-1.2128,-1.2153,-1.2175,-1.2273,-1.226,-1.2287,-1.2337,-1.238,-1.2391,-1.2401,-1.2437,-1.2449,-1.2295,-1.2295,-1.2295,0,-1.1809,-1.1878,-1.1877,-1.193,-1.1955,-1.1936,-1.1994,-1.2017,-1.2062,-1.208,-1.2058,-1.2151,-1.2172,-1.2252,-1.2276,-1.2294,-1.231,-1.2283,-1.239,-1.24,-1.2409,-1.2443,-1.2456,-1.2298,-1.2297,-1.2297,-1.2297,0,-1.1927,-1.1975,-1.2017,-1.2062,-1.2092,-1.2147,-1.2154,-1.2184,-1.2179,-1.2189,-1.2255,-1.228,-1.2325,-1.2344,-1.234,-1.2423,-1.241,-1.2389,-1.235,-1.2426,-1.2457,-1.247,-1.2302,-1.2301,-1.23,-1.2299,0,0,-1.2044,-1.2087,-1.2103,-1.2123,-1.2159,-1.2196,-1.225,-1.2294,-1.232,-1.2352,-1.2397,-1.246,-1.244,-1.2465,-1.2464,-1.2501,-1.2578,-1.2475,-1.2476,-1.2494,-1.2671,-1.2687,-1.2702,-1.2568,-1.2571,-1.2573,-1.2668,0,-1.2138,-1.2232,-1.2233,-1.232,-1.2364,-1.2347,-1.2394,-1.2421,-1.2431,-1.247,-1.2481,-1.2526,-1.2496,-1.2511,-1.2547,-1.2561,-1.2613,-1.2554,-1.261,-1.2612,-1.2603,-1.2719,-1.2736,-1.2825,-1.2681,-1.2683,-1.2684,0,-1.226,-1.2295,-1.2387,-1.2416,-1.2435,-1.2477,-1.2517,-1.2555,-1.2585,-1.2589,-1.2617,-1.261,-1.2664,-1.2623,-1.2698,-1.2657,-1.268,-1.269,-1.2694,-1.2699,-1.2653,-1.2728,-1.2854,-1.2867,-1.2704,-1.2702,-1.2701,0,-1.2336,-1.2407,-1.2471,-1.2489,-1.2524,-1.2554,-1.257,-1.2598,-1.2624,-1.266,-1.2677,-1.2718,-1.274,-1.2772,-1.2776,-1.2745,-1.2851,-1.281,-1.2857,-1.2857,-1.288,-1.2879,-1.3012,-1.2894,-1.2894,-1.2894,-1.2894,0,-1.2441,-1.2498,-1.2506,-1.2546,-1.2609,-1.2608,-1.267,-1.2684,-1.2708,-1.275,-1.2737,-1.2776,-1.2778,-1.2819,-1.2822,-1.2883,-1.2893,-1.2899,-1.2899,-1.29,-1.29,-1.2916,-1.291,-1.2897,-1.2897,-1.2896,-1.2895,0,-1.2538,-1.2546,-1.2615,-1.2642,-1.2651,-1.2696,-1.2719,-1.2757,-1.2765,-1.2818,-1.283,-1.2844,-1.289,-1.2897,-1.2951,-1.2953,-1.3027,-1.3021,-1.3017,-1.3017,-1.3063,-1.3058,-1.3211,-1.3231,-1.31,-1.3101,-1.3102,0,-1.2605,-1.2648,-1.268,-1.2707,-1.2725,-1.2769,-1.2795,-1.2796,-1.2825,-1.2862,-1.2895,-1.294,-1.2976,-1.3051,-1.3066,-1.3107,-1.3102,-1.3152,-1.3108,-1.3108,-1.3103,-1.31,-1.3105,-1.3161,-1.3163,-1.3164,-1.3165,0,-1.2723,-1.2724,-1.2763,-1.2804,-1.2836,-1.2868,-1.2899,-1.2921,-1.2926,-1.2958,-1.3006,-1.3034,-1.3089,-1.3134,-1.3175,-1.3191,-1.3179,-1.3178,-1.3191,-1.3193,-1.319,-1.3193,-1.3041,-1.3175,-1.3174,-1.3173,-1.3173,-1.3172,-1.2807,-1.2844,-1.2873,-1.2917,-1.2939,-1.2968,-1.3004,-1.3017,-1.3057,-1.3102,-1.31,-1.3152,-1.318,-1.3234,-1.3253,-1.3293,-1.3277,-1.3295,-1.33,-1.3305,-1.331,-1.3183,-1.3301,-1.33,-1.33,-1.33,-1.3299,0,-1.2924,-1.2941,-1.2982,-1.3024,-1.3059,-1.3044,-1.3076,-1.3106,-1.3152,-1.3179,-1.3215,-1.3269,-1.3313,-1.333,-1.3373,-1.3402,-1.3397,-1.3413,-1.3411,-1.3415,-1.3322,-1.3307,-1.3416,-1.3416,-1.3416,-1.3416,-1.3416,-1.3416,-1.2989,-1.3052,-1.3057,-1.313,-1.3147,-1.3198,-1.3218,-1.3244,-1.3266,-1.3327,-1.3363,-1.3374,-1.3397,-1.3441,-1.348,-1.3484,-1.35,-1.3518,-1.352,-1.3433,-1.3421,-1.341,-1.3396,-1.3522,-1.3522,-1.3609,-1.361,-1.3611]},{"header":{"parameterUnit":"m.s-1","parameterCategory":1,"la1":30.2991,"la2":30.254,"lo1":-89.0895,"lo2":-89.0444,"dy":0.0017,"dx":0.0017,"nx":28,"ny":28,"refTime":"2023-11-04T09:00:00:Z","depth":0,"parameterNumber":3,"parameterNumberName":"V-component_of_WINDS"},"data":[0,0,0,0,0,0,0,0,0,0,0,0,0,0,0,0,0,0,0,0,0,0,0,0,0,0,0,0,0,0,0,0,0,0,0,0,0,0,0,0,0,0,0,0,0,0,0,0,0,0,0,0,0,0,0,0,0,0,-4.2403,-4.2404,0,-4.2508,-4.2509,-4.2511,-4.247,-4.2467,-4.2465,-4.2463,-4.2565,-4.257,-4.2575,0,0,0,0,0,0,0,0,0,0,0,0,0,-4.2161,-4.2165,-4.2403,-4.2404,-4.2405,-4.2508,-4.2509,-4.2511,-4.247,-4.2467,-4.2464,-4.2461,-4.2563,-4.2569,-4.2575,0,0,0,0,0,0,0,0,0,0,0,0,0,-4.2266,-4.2167,-4.2403,-4.2398,-4.2398,-4.2508,-4.2509,-4.2511,-4.2471,-4.2467,-4.2463,-4.246,-4.2561,-4.2568,-4.2576,-4.2695,0,0,-4.2599,-4.2602,0,0,0,0,0,0,0,0,-4.226,-4.2275,-4.2397,-4.2398,-4.2399,-4.2472,-4.2461,-4.2573,-4.2472,-4.2443,-4.2462,-4.2458,-4.2537,-4.2546,-4.2573,-4.27,-4.2704,-4.2599,-4.2604,-4.2607,-4.2609,0,0,0,0,0,0,0,-4.2253,-4.227,-4.2444,-4.2399,-4.24,-4.2388,-4.2399,-4.2482,-4.2509,-4.2445,-4.2443,-4.2456,-4.2536,-4.2566,-4.2575,-4.2705,-4.2599,-4.2606,-4.261,-4.2613,-4.2934,-4.2937,0,0,0,0,0,0,-4.2246,-4.2264,-4.2441,-4.2447,-4.2319,-4.2396,-4.2408,-4.2452,-4.2508,-4.2513,-4.2459,-4.2454,-4.2555,-4.2567,-4.2579,-4.2722,-4.2607,-4.2614,-4.2618,-4.293,-4.2935,-4.2939,0,0,0,0,0,0,-4.2241,-4.2262,-4.2437,-4.2355,-4.2377,-4.2404,-4.2454,-4.2456,-4.2486,-4.2518,-4.2522,-4.2485,-4.2553,-4.2568,-4.2667,-4.2725,-4.2617,-4.2624,-4.2925,-4.2931,-4.2937,-4.3009,0,0,0,0,0,0,-4.2234,-4.226,-4.2307,-4.2357,-4.2381,-4.2525,-4.2458,-4.2461,-4.25,-4.2494,-4.2544,-4.2548,-4.2551,-4.2656,-4.2674,-4.2733,-4.263,-4.292,-4.2928,-4.2935,-4.3001,-4.3016,-4.3029,0,0,0,0,0,-4.2225,-4.2322,-4.231,-4.2331,-4.2441,-4.2528,-4.2542,-4.2545,-4.2505,-4.2551,-4.2572,-4.2547,-4.2715,-4.2666,-4.2686,-4.2749,-4.2916,-4.2925,-4.2934,-4.2995,-4.3013,-4.3029,0,0,0,0,0,0,-4.2277,-4.2328,-4.2315,-4.2431,-4.2476,-4.2521,-4.258,-4.2564,-4.262,-4.2612,-4.2611,-4.2622,-4.2724,-4.2746,-4.269,-4.2866,-4.2809,-4.2823,-4.2848,-4.2866,-4.288,-4.2873,-4.2636,0,0,0,0,0,-4.2302,-4.2371,-4.2411,-4.2509,-4.2533,-4.2553,-4.2591,-4.2589,-4.2635,-4.2653,-4.268,-4.2723,-4.2786,-4.2827,-4.2887,-4.3004,-4.3014,-4.3056,-4.3071,-4.3082,-4.3094,-4.3157,-4.3176,-4.2969,-4.2969,-4.2968,0,0,-4.2354,-4.2391,-4.2434,-4.2521,-4.2555,-4.2625,-4.2569,-4.2644,-4.2695,-4.2663,-4.2759,-4.278,-4.2828,-4.2937,-4.2986,-4.2958,-4.3153,-4.3094,-4.3102,-4.3108,-4.3168,-4.3188,-4.3205,-4.2975,-4.2974,-4.2973,0,0,-4.2485,-4.252,-4.2605,-4.2641,-4.2695,-4.2707,-4.2728,-4.2776,-4.279,-4.2885,-4.2863,-4.2922,-4.303,-4.3066,-4.3098,-4.3242,-4.3221,-4.3261,-4.3334,-4.3396,-4.3412,-4.3427,-4.3478,-4.3497,-4.3272,-4.3272,-4.3273,0,-4.2542,-4.2648,-4.2651,-4.2729,-4.2768,-4.2744,-4.283,-4.2864,-4.2933,-4.2959,-4.2928,-4.3063,-4.3094,-4.321,-4.3245,-4.3272,-4.3294,-4.3255,-4.341,-4.3425,-4.3438,-4.3487,-4.3506,-4.3277,-4.3277,-4.3276,-4.3276,0,-4.2716,-4.2789,-4.2852,-4.2922,-4.2967,-4.3048,-4.3062,-4.3107,-4.3102,-4.3117,-4.3214,-4.325,-4.3317,-4.3344,-4.3338,-4.3459,-4.3441,-4.341,-4.3353,-4.3463,-4.3508,-4.3527,-4.3284,-4.3282,-4.3281,-4.3279,0,0,-4.2882,-4.2953,-4.2976,-4.3007,-4.3064,-4.312,-4.32,-4.3267,-4.3305,-4.3353,-4.3419,-4.3512,-4.3484,-4.352,-4.3518,-4.3572,-4.3684,-4.3535,-4.3536,-4.3561,-4.3819,-4.3842,-4.3864,-4.367,-4.3674,-4.3677,-4.3815,0,-4.3017,-4.316,-4.3165,-4.3294,-4.3361,-4.3339,-4.3409,-4.345,-4.3467,-4.3524,-4.3541,-4.3607,-4.3565,-4.3587,-4.364,-4.3659,-4.3735,-4.3649,-4.373,-4.3733,-4.372,-4.3887,-4.3912,-4.4041,-4.3833,-4.3836,-4.3838,0,-4.3194,-4.325,-4.3387,-4.3435,-4.3463,-4.3525,-4.3587,-4.3643,-4.3689,-4.3697,-4.3738,-4.3728,-4.3808,-4.3748,-4.3857,-4.3799,-4.3832,-4.3846,-4.3851,-4.3859,-4.3792,-4.39,-4.4082,-4.4101,-4.3866,-4.3864,-4.3862,0,-4.3302,-4.3411,-4.3507,-4.3534,-4.3592,-4.3637,-4.3662,-4.3705,-4.3745,-4.3798,-4.3823,-4.3884,-4.3917,-4.3964,-4.397,-4.3926,-4.4079,-4.402,-4.4087,-4.4087,-4.4121,-4.4118,-4.4311,-4.4142,-4.4142,-4.4141,-4.4141,0,-4.3452,-4.3537,-4.3556,-4.3616,-4.3709,-4.3713,-4.3805,-4.3826,-4.3865,-4.3926,-4.391,-4.3968,-4.3972,-4.4031,-4.4036,-4.4125,-4.414,-4.4148,-4.4148,-4.415,-4.4149,-4.4172,-4.4163,-4.4146,-4.4145,-4.4144,-4.4143,0,-4.3588,-4.3605,-4.3709,-4.3755,-4.3769,-4.3836,-4.3875,-4.393,-4.3945,-4.4023,-4.4041,-4.4064,-4.4132,-4.4143,-4.4223,-4.4226,-4.4333,-4.4324,-4.4319,-4.4317,-4.4384,-4.4378,-4.4598,-4.4627,-4.4439,-4.444,-4.4442,0,-4.3684,-4.3749,-4.3803,-4.3844,-4.3873,-4.3939,-4.398,-4.3985,-4.4028,-4.4086,-4.4134,-4.4201,-4.4255,-4.4365,-4.4388,-4.4448,-4.4441,-4.4514,-4.4449,-4.4449,-4.4442,-4.4438,-4.4444,-4.4526,-4.4528,-4.453,-4.4531,0,-4.3851,-4.3856,-4.3917,-4.3981,-4.4031,-4.4081,-4.4128,-4.4162,-4.4174,-4.4223,-4.4294,-4.4336,-4.4418,-4.4485,-4.4545,-4.4569,-4.4552,-4.4551,-4.457,-4.4572,-4.4566,-4.4571,-4.4353,-4.4546,-4.4544,-4.4543,-4.4543,-4.4542,-4.397,-4.4027,-4.4074,-4.4142,-4.4178,-4.4223,-4.4278,-4.43,-4.436,-4.4429,-4.4428,-4.4505,-4.4549,-4.4628,-4.4657,-4.4716,-4.4692,-4.4719,-4.4726,-4.4733,-4.474,-4.4557,-4.4727,-4.4726,-4.4726,-4.4726,-4.4725,0,-4.4136,-4.4166,-4.4229,-4.4296,-4.435,-4.4331,-4.4382,-4.4427,-4.4497,-4.4539,-4.4593,-4.4674,-4.4739,-4.4766,-4.4829,-4.4872,-4.4865,-4.4888,-4.4885,-4.4891,-4.4757,-4.4735,-4.4892,-4.4892,-4.4892,-4.4892,-4.4892,-4.4892,-4.423,-4.4325,-4.4335,-4.4448,-4.4476,-4.4554,-4.4584,-4.4625,-4.4659,-4.4751,-4.4805,-4.4824,-4.486,-4.4925,-4.4983,-4.4989,-4.5013,-4.5039,-4.5042,-4.4917,-4.49,-4.4884,-4.4863,-4.5044,-4.5045,-4.517,-4.5172,-4.5173]}]]